,,PA_Meas_PMT16A,,PR_Meas_QMR101_102,,RH_Meas_QMH101,,SR_Meas_QMS101,,TA_Meas_QMH101,,GenWind,,GenWind,
time,status,PA,status,PR,status,RH,status,SR,status,TA,status,DirAvg,status,SpdAvg,
2009-08-30, 00:00:04,VALID,919.65,VALID,0,VALID,90.2612,VALID,0.107441,VALID,19.6623,VALID,358,VALID,0,
2009-08-30, 00:01:04,VALID,919.624,VALID,0,VALID,90.6424,VALID,0.107441,VALID,19.6608,VALID,358,VALID,0.206641,
2009-08-30, 00:02:04,VALID,919.562,VALID,0,VALID,90.0707,VALID,0.107441,VALID,19.6998,VALID,358,VALID,0.340625,
2009-08-30, 00:03:04,VALID,919.571,VALID,0,VALID,90.7187,VALID,0.107441,VALID,19.7598,VALID,358,VALID,0.552344,
2009-08-30, 00:04:04,VALID,919.526,VALID,0,VALID,90.894,VALID,0,VALID,19.7193,VALID,358,VALID,0.452344,
2009-08-30, 00:05:04,VALID,919.529,VALID,0,VALID,91.4657,VALID,0.107441,VALID,19.6998,VALID,358,VALID,0.899219,
2009-08-30, 00:06:04,VALID,919.525,VALID,0,VALID,91.0312,VALID,0.107441,VALID,19.6608,VALID,358,VALID,0.644531,
2009-08-30, 00:07:04,VALID,919.519,VALID,0,VALID,91.5801,VALID,0.107441,VALID,19.7013,VALID,358,VALID,0.646094,
2009-08-30, 00:08:04,VALID,919.529,VALID,0,VALID,91.4505,VALID,0,VALID,19.7013,VALID,358,VALID,0.726953,
2009-08-30, 00:09:04,VALID,919.494,VALID,0,VALID,91.0083,VALID,0.107441,VALID,19.7193,VALID,358,VALID,0.703906,
2009-08-30, 00:10:04,VALID,919.498,VALID,0,VALID,91.0312,VALID,0,VALID,19.7193,VALID,358,VALID,0.7875,
2009-08-30, 00:11:04,VALID,919.472,VALID,0,VALID,90.711,VALID,0.107441,VALID,19.7598,VALID,358,VALID,0.773828,
2009-08-30, 00:12:04,VALID,919.412,VALID,0,VALID,90.9931,VALID,0.107441,VALID,19.7778,VALID,358,VALID,0.69375,
2009-08-30, 00:13:04,VALID,919.403,VALID,0,VALID,90.4671,VALID,0,VALID,19.7988,VALID,358,VALID,0.513281,
2009-08-30, 00:14:04,VALID,919.359,VALID,0,VALID,90.955,VALID,0.107441,VALID,19.7793,VALID,358,VALID,0.680859,
2009-08-30, 00:15:04,VALID,919.295,VALID,0,VALID,90.8864,VALID,0.107441,VALID,19.7778,VALID,358,VALID,0.549609,
2009-08-30, 00:16:04,VALID,919.315,VALID,0,VALID,90.3146,VALID,0.107441,VALID,19.7793,VALID,358,VALID,0.566016,
2009-08-30, 00:17:04,VALID,919.26,VALID,0,VALID,90.6119,VALID,0,VALID,19.7793,VALID,358,VALID,0.461719,
2009-08-30, 00:18:04,VALID,919.219,VALID,0,VALID,90.2231,VALID,0,VALID,19.7598,VALID,358,VALID,0.44375,
2009-08-30, 00:19:04,VALID,919.188,VALID,0,VALID,89.8648,VALID,0.107441,VALID,19.7598,VALID,358,VALID,0.402734,
2009-08-30, 00:20:04,VALID,919.194,VALID,0,VALID,90.2689,VALID,0,VALID,19.7403,VALID,358,VALID,0.510547,
2009-08-30, 00:21:04,VALID,919.185,VALID,0,VALID,91.0541,VALID,0.107441,VALID,19.6803,VALID,358,VALID,0.633203,
2009-08-30, 00:22:04,VALID,919.169,VALID,0,VALID,90.8025,VALID,0.107441,VALID,19.6608,VALID,358,VALID,0.632422,
2009-08-30, 00:23:04,VALID,919.141,VALID,0,VALID,90.6043,VALID,0.107441,VALID,19.6818,VALID,358,VALID,0.667969,
2009-08-30, 00:24:04,VALID,919.108,VALID,0,VALID,90.8406,VALID,0.107441,VALID,19.7013,VALID,358,VALID,0.55625,
2009-08-30, 00:25:04,VALID,919.059,VALID,0,VALID,90.4595,VALID,0.107441,VALID,19.6818,VALID,358,VALID,0.207422,
2009-08-30, 00:26:04,VALID,919.04,VALID,0,VALID,90.833,VALID,0.107441,VALID,19.7013,VALID,358,VALID,0.319922,
2009-08-30, 00:27:04,VALID,919.005,VALID,0,VALID,90.5052,VALID,0,VALID,19.7013,VALID,358,VALID,0.0832031,
2009-08-30, 00:28:04,VALID,919.003,VALID,0,VALID,90.6348,VALID,0.107441,VALID,19.7013,VALID,358,VALID,0,
2009-08-30, 00:29:04,VALID,918.988,VALID,0,VALID,90.4595,VALID,0,VALID,19.7013,VALID,358,VALID,0.264844,
2009-08-30, 00:30:04,VALID,919.023,VALID,0,VALID,86.8688,VALID,0,VALID,19.6428,VALID,358,VALID,0.360156,
2009-08-30, 00:31:04,VALID,919.029,VALID,0,VALID,88.424,VALID,0.107441,VALID,19.5438,VALID,358,VALID,0.344531,
2009-08-30, 00:32:04,VALID,919.067,VALID,0,VALID,90.7339,VALID,0.107441,VALID,19.4478,VALID,358,VALID,0.738281,
2009-08-30, 00:33:04,VALID,919.064,VALID,0,VALID,92.2128,VALID,0,VALID,19.3503,VALID,358,VALID,0.873828,
2009-08-30, 00:34:04,VALID,919.033,VALID,0,VALID,92.4797,VALID,0,VALID,19.2918,VALID,358,VALID,1.11445,
2009-08-30, 00:35:04,VALID,919.002,VALID,0,VALID,92.7998,VALID,0.107441,VALID,19.2904,VALID,358,VALID,1.14609,
2009-08-30, 00:36:04,VALID,918.994,VALID,0,VALID,92.2738,VALID,0.107441,VALID,19.3294,VALID,358,VALID,1.1,
2009-08-30, 00:37:04,VALID,918.947,VALID,0,VALID,92.5864,VALID,0.107441,VALID,19.3893,VALID,358,VALID,1.06406,
2009-08-30, 00:38:04,VALID,918.928,VALID,0,VALID,92.4415,VALID,0.107441,VALID,19.4074,VALID,358,VALID,0.835547,
2009-08-30, 00:39:04,VALID,918.919,VALID,0,VALID,92.3119,VALID,0.107441,VALID,19.4268,VALID,358,VALID,1.08828,
2009-08-30, 00:40:04,VALID,918.92,VALID,0,VALID,92.0146,VALID,0.107441,VALID,19.4673,VALID,358,VALID,1.00156,
2009-08-30, 00:41:04,VALID,918.922,VALID,0,VALID,92.007,VALID,0.107441,VALID,19.4853,VALID,358,VALID,1.03828,
2009-08-30, 00:42:04,VALID,918.87,VALID,0,VALID,92.1137,VALID,0.107441,VALID,19.5648,VALID,358,VALID,0.960156,
2009-08-30, 00:43:04,VALID,918.838,VALID,0,VALID,91.5344,VALID,0,VALID,19.5828,VALID,358,VALID,1.03281,
2009-08-30, 00:44:04,VALID,918.823,VALID,0,VALID,91.8012,VALID,0,VALID,19.6023,VALID,338,VALID,1.03047,
2009-08-30, 00:45:04,VALID,918.803,VALID,0,VALID,91.6411,VALID,0,VALID,19.6818,VALID,339,VALID,1.02656,
2009-08-30, 00:46:04,VALID,918.779,VALID,0,VALID,91.5648,VALID,0,VALID,19.6818,VALID,339,VALID,1.10391,
2009-08-30, 00:47:04,VALID,918.789,VALID,0,VALID,91.237,VALID,0.107441,VALID,19.6818,VALID,339,VALID,0.793359,
2009-08-30, 00:48:04,VALID,918.793,VALID,0,VALID,91.6945,VALID,0.107441,VALID,19.6608,VALID,339,VALID,0.75625,
2009-08-30, 00:49:04,VALID,918.823,VALID,0,VALID,91.8774,VALID,0.107441,VALID,19.6608,VALID,339,VALID,0.635547,
2009-08-30, 00:50:04,VALID,918.844,VALID,0,VALID,91.7707,VALID,0,VALID,19.6623,VALID,339,VALID,0.398047,
2009-08-30, 00:51:04,VALID,918.838,VALID,0,VALID,91.7631,VALID,0,VALID,19.6413,VALID,339,VALID,0.433984,
2009-08-30, 00:52:04,VALID,918.848,VALID,0,VALID,91.885,VALID,0.107441,VALID,19.6623,VALID,339,VALID,0.163672,
2009-08-30, 00:53:04,VALID,918.813,VALID,0,VALID,91.885,VALID,0.107441,VALID,19.6623,VALID,339,VALID,0.290625,
2009-08-30, 00:54:04,VALID,918.812,VALID,0,VALID,91.7097,VALID,0,VALID,19.6413,VALID,339,VALID,0.298047,
2009-08-30, 00:55:04,VALID,918.81,VALID,0,VALID,91.481,VALID,0,VALID,19.6818,VALID,339,VALID,0.613672,
2009-08-30, 00:56:04,VALID,918.81,VALID,0,VALID,91.1913,VALID,0.107441,VALID,19.6608,VALID,339,VALID,0.855859,
2009-08-30, 00:57:04,VALID,918.764,VALID,0,VALID,91.2752,VALID,0,VALID,19.6413,VALID,339,VALID,0.661328,
2009-08-30, 00:58:04,VALID,918.754,VALID,0,VALID,91.4505,VALID,0.107441,VALID,19.6623,VALID,339,VALID,0.244922,
2009-08-30, 00:59:04,VALID,918.769,VALID,0,VALID,90.307,VALID,0,VALID,19.6428,VALID,340,VALID,0.417578,
2009-08-30, 01:00:04,VALID,918.82,VALID,0,VALID,90.7568,VALID,0,VALID,19.6428,VALID,340,VALID,0.692578,
2009-08-30, 01:01:04,VALID,918.817,VALID,0,VALID,91.4124,VALID,0,VALID,19.6233,VALID,340,VALID,0.764844,
2009-08-30, 01:02:04,VALID,918.799,VALID,0,VALID,91.9003,VALID,0.107441,VALID,19.5843,VALID,340,VALID,0.760938,
2009-08-30, 01:03:04,VALID,918.829,VALID,0,VALID,92.0527,VALID,0.107441,VALID,19.5633,VALID,340,VALID,0.724219,
2009-08-30, 01:04:04,VALID,918.79,VALID,0,VALID,91.7783,VALID,0.107441,VALID,19.5828,VALID,340,VALID,0.676953,
2009-08-30, 01:05:04,VALID,918.767,VALID,0,VALID,91.4124,VALID,0.107441,VALID,19.5828,VALID,340,VALID,0.542188,
2009-08-30, 01:06:04,VALID,918.721,VALID,0,VALID,91.481,VALID,0.107441,VALID,19.6023,VALID,340,VALID,0.484766,
2009-08-30, 01:07:04,VALID,918.691,VALID,0,VALID,92.2052,VALID,0.107441,VALID,19.6428,VALID,340,VALID,0.688672,
2009-08-30, 01:08:04,VALID,918.682,VALID,0,VALID,91.824,VALID,0.107441,VALID,19.6623,VALID,340,VALID,0.708594,
2009-08-30, 01:09:04,VALID,918.663,VALID,0,VALID,91.3209,VALID,0,VALID,19.6608,VALID,340,VALID,0.6,
2009-08-30, 01:10:04,VALID,918.662,VALID,0,VALID,92.3882,VALID,0,VALID,19.7388,VALID,340,VALID,0.765625,
2009-08-30, 01:11:04,VALID,918.631,VALID,0,VALID,91.7249,VALID,0.107441,VALID,19.7388,VALID,340,VALID,0.561719,
2009-08-30, 01:12:04,VALID,918.601,VALID,0,VALID,91.481,VALID,0.107441,VALID,19.7583,VALID,340,VALID,0.394141,
2009-08-30, 01:13:04,VALID,918.634,VALID,0,VALID,91.2294,VALID,0.107441,VALID,19.7388,VALID,340,VALID,0.621094,
2009-08-30, 01:14:04,VALID,918.583,VALID,0,VALID,92.2891,VALID,0,VALID,19.7388,VALID,340,VALID,0.672266,
2009-08-30, 01:15:04,VALID,918.591,VALID,0,VALID,92.7541,VALID,0.107441,VALID,19.7403,VALID,340,VALID,0.903125,
2009-08-30, 01:16:04,VALID,918.584,VALID,0,VALID,92.4415,VALID,0.107441,VALID,19.7598,VALID,340,VALID,0.920313,
2009-08-30, 01:17:04,VALID,918.582,VALID,0,VALID,92.0223,VALID,0.107441,VALID,19.7778,VALID,340,VALID,0.6875,
2009-08-30, 01:18:04,VALID,918.558,VALID,0,VALID,91.6868,VALID,0.107441,VALID,19.7778,VALID,340,VALID,0.651172,
2009-08-30, 01:19:04,VALID,918.534,VALID,0,VALID,91.0083,VALID,0,VALID,19.7988,VALID,340,VALID,0.616016,
2009-08-30, 01:20:04,VALID,918.543,VALID,0,VALID,91.885,VALID,0.107441,VALID,19.7778,VALID,340,VALID,0.723828,
2009-08-30, 01:21:04,VALID,918.523,VALID,0,VALID,91.8012,VALID,0,VALID,19.7793,VALID,340,VALID,0.264453,
2009-08-30, 01:22:04,VALID,918.503,VALID,0,VALID,91.6792,VALID,0,VALID,19.7388,VALID,340,VALID,0.234375,
2009-08-30, 01:23:04,VALID,918.471,VALID,0,VALID,90.1698,VALID,0.107441,VALID,19.7403,VALID,340,VALID,0,
2009-08-30, 01:24:04,VALID,918.464,VALID,0,VALID,91.4962,VALID,0,VALID,19.6998,VALID,340,VALID,0,
2009-08-30, 01:25:04,VALID,918.428,VALID,0,VALID,92.129,VALID,0.107441,VALID,19.6803,VALID,340,VALID,0.292578,
2009-08-30, 01:26:04,VALID,918.372,VALID,0,VALID,92.4797,VALID,0.107441,VALID,19.6818,VALID,340,VALID,0.472266,
2009-08-30, 01:27:04,VALID,918.351,VALID,0,VALID,91.9613,VALID,0.107441,VALID,19.6803,VALID,340,VALID,0.598047,
2009-08-30, 01:28:04,VALID,918.32,VALID,0,VALID,91.8622,VALID,0,VALID,19.6803,VALID,340,VALID,0.582812,
2009-08-30, 01:29:04,VALID,918.299,VALID,0,VALID,91.7097,VALID,0,VALID,19.6818,VALID,340,VALID,0.399219,
2009-08-30, 01:30:04,VALID,918.261,VALID,0,VALID,91.3438,VALID,0.107441,VALID,19.6623,VALID,340,VALID,0.284375,
2009-08-30, 01:31:04,VALID,918.252,VALID,0,VALID,91.4886,VALID,0,VALID,19.6428,VALID,340,VALID,0.221484,
2009-08-30, 01:32:04,VALID,918.27,VALID,0,VALID,91.8774,VALID,0.107441,VALID,19.6218,VALID,340,VALID,0.689844,
2009-08-30, 01:33:04,VALID,918.251,VALID,0,VALID,92.0527,VALID,0,VALID,19.6023,VALID,340,VALID,0.65625,
2009-08-30, 01:34:04,VALID,918.255,VALID,0,VALID,92.0375,VALID,0,VALID,19.6428,VALID,340,VALID,0.838281,
2009-08-30, 01:35:04,VALID,918.274,VALID,0,VALID,92.2128,VALID,0.107441,VALID,19.6428,VALID,340,VALID,0.867969,
2009-08-30, 01:36:04,VALID,918.321,VALID,0,VALID,91.9918,VALID,0.107441,VALID,19.6623,VALID,340,VALID,0.692187,
2009-08-30, 01:37:04,VALID,918.396,VALID,0,VALID,92.0832,VALID,0,VALID,19.6818,VALID,340,VALID,0.603125,
2009-08-30, 01:38:04,VALID,918.396,VALID,0,VALID,92.0604,VALID,0,VALID,19.7208,VALID,340,VALID,0.406641,
2009-08-30, 01:39:04,VALID,918.458,VALID,0,VALID,92.068,VALID,0,VALID,19.7598,VALID,340,VALID,0.24375,
2009-08-30, 01:40:04,VALID,918.46,VALID,0,VALID,91.4657,VALID,0,VALID,19.7793,VALID,340,VALID,0,
2009-08-30, 01:41:04,VALID,918.483,VALID,0,VALID,91.1684,VALID,0,VALID,19.8183,VALID,340,VALID,0.0332031,
2009-08-30, 01:42:04,VALID,918.478,VALID,0,VALID,90.9397,VALID,0,VALID,19.8378,VALID,340,VALID,0.135547,
2009-08-30, 01:43:04,VALID,918.46,VALID,0,VALID,91.0388,VALID,0,VALID,19.8768,VALID,340,VALID,0.201172,
2009-08-30, 01:44:04,VALID,918.465,VALID,0,VALID,91.2294,VALID,0,VALID,19.8963,VALID,340,VALID,0.222656,
2009-08-30, 01:45:04,VALID,918.451,VALID,0,VALID,91.1913,VALID,0,VALID,19.8768,VALID,340,VALID,0,
2009-08-30, 01:46:04,VALID,918.451,VALID,0,VALID,90.7949,VALID,0,VALID,19.8963,VALID,340,VALID,0,
2009-08-30, 01:47:04,VALID,918.453,VALID,0,VALID,90.8254,VALID,0,VALID,19.8948,VALID,340,VALID,0,
2009-08-30, 01:48:04,VALID,918.488,VALID,0,VALID,90.7644,VALID,0,VALID,19.9158,VALID,340,VALID,0,
2009-08-30, 01:49:04,VALID,918.479,VALID,0,VALID,90.9016,VALID,0,VALID,19.9158,VALID,340,VALID,0,
2009-08-30, 01:50:04,VALID,918.496,VALID,0,VALID,91.237,VALID,0,VALID,19.9368,VALID,340,VALID,0,
2009-08-30, 01:51:04,VALID,918.507,VALID,0,VALID,91.3743,VALID,0,VALID,19.9173,VALID,340,VALID,0.176172,
2009-08-30, 01:52:04,VALID,918.534,VALID,0,VALID,91.5267,VALID,0,VALID,19.8963,VALID,340,VALID,0.211328,
2009-08-30, 01:53:04,VALID,918.558,VALID,0,VALID,91.5267,VALID,0,VALID,19.8963,VALID,340,VALID,0.276172,
2009-08-30, 01:54:04,VALID,918.553,VALID,0,VALID,91.1456,VALID,0,VALID,19.9173,VALID,340,VALID,0.00664063,
2009-08-30, 01:55:04,VALID,918.569,VALID,0,VALID,90.955,VALID,0,VALID,19.8963,VALID,340,VALID,0.0324219,
2009-08-30, 01:56:04,VALID,918.532,VALID,0,VALID,91.2599,VALID,0,VALID,19.8963,VALID,340,VALID,0.390234,
2009-08-30, 01:57:04,VALID,918.508,VALID,0,VALID,91.3514,VALID,0.107441,VALID,19.8948,VALID,340,VALID,0.85625,
2009-08-30, 01:58:04,VALID,918.478,VALID,0,VALID,91.3285,VALID,0,VALID,19.9353,VALID,340,VALID,0.736328,
2009-08-30, 01:59:04,VALID,918.459,VALID,0,VALID,91.0846,VALID,0,VALID,19.9743,VALID,340,VALID,0.708203,
2009-08-30, 02:00:04,VALID,918.501,VALID,0,VALID,90.9245,VALID,0,VALID,19.9938,VALID,340,VALID,0.288672,
2009-08-30, 02:01:04,VALID,918.497,VALID,0,VALID,90.6119,VALID,0,VALID,19.9743,VALID,340,VALID,0.232812,
2009-08-30, 02:02:04,VALID,918.496,VALID,0,VALID,90.5891,VALID,0,VALID,19.9938,VALID,340,VALID,0.144922,
2009-08-30, 02:03:04,VALID,918.529,VALID,0,VALID,90.429,VALID,0,VALID,19.9743,VALID,340,VALID,0.348828,
2009-08-30, 02:04:04,VALID,918.49,VALID,0,VALID,90.8406,VALID,0,VALID,19.9548,VALID,340,VALID,0.582031,
2009-08-30, 02:05:04,VALID,918.481,VALID,0,VALID,91.3666,VALID,0,VALID,19.9158,VALID,340,VALID,0.649219,
2009-08-30, 02:06:05,VALID,918.465,VALID,0,VALID,91.7173,VALID,0.107441,VALID,19.9158,VALID,340,VALID,0.85625,
2009-08-30, 02:07:04,VALID,918.455,VALID,0,VALID,91.7249,VALID,0,VALID,19.8768,VALID,340,VALID,0.835547,
2009-08-30, 02:08:05,VALID,918.446,VALID,0,VALID,91.7707,VALID,0,VALID,19.8783,VALID,340,VALID,0.754297,
2009-08-30, 02:09:05,VALID,918.453,VALID,0,VALID,91.9003,VALID,0,VALID,19.8588,VALID,340,VALID,0.841016,
2009-08-30, 02:10:05,VALID,918.447,VALID,0,VALID,92.1214,VALID,0,VALID,19.8393,VALID,340,VALID,0.878906,
2009-08-30, 02:11:05,VALID,918.459,VALID,0,VALID,92.1214,VALID,0,VALID,19.7793,VALID,340,VALID,0.792188,
2009-08-30, 02:12:05,VALID,918.475,VALID,0,VALID,92.2586,VALID,0,VALID,19.7793,VALID,340,VALID,0.739062,
2009-08-30, 02:13:05,VALID,918.451,VALID,0,VALID,92.533,VALID,0,VALID,19.7793,VALID,340,VALID,1.05117,
2009-08-30, 02:14:05,VALID,918.437,VALID,0,VALID,92.3729,VALID,0,VALID,19.8003,VALID,340,VALID,0.967188,
2009-08-30, 02:15:05,VALID,918.422,VALID,0,VALID,92.3272,VALID,0,VALID,19.8198,VALID,340,VALID,0.957031,
2009-08-30, 02:16:05,VALID,918.407,VALID,0,VALID,92.3043,VALID,0,VALID,19.8588,VALID,340,VALID,1.04453,
2009-08-30, 02:17:05,VALID,918.357,VALID,0,VALID,92.0451,VALID,0,VALID,19.8393,VALID,340,VALID,1.00312,
2009-08-30, 02:18:05,VALID,918.331,VALID,0,VALID,92.0527,VALID,0,VALID,19.8198,VALID,340,VALID,0.800391,
2009-08-30, 02:19:05,VALID,918.336,VALID,0,VALID,92.1214,VALID,0,VALID,19.7808,VALID,340,VALID,0.509766,
2009-08-30, 02:20:05,VALID,918.329,VALID,0,VALID,92.3424,VALID,0,VALID,19.7808,VALID,340,VALID,0.551562,
2009-08-30, 02:21:05,VALID,918.338,VALID,0,VALID,92.4492,VALID,0,VALID,19.7613,VALID,340,VALID,0.655859,
2009-08-30, 02:22:05,VALID,918.345,VALID,0,VALID,92.8227,VALID,0,VALID,19.7613,VALID,340,VALID,0.266797,
2009-08-30, 02:23:05,VALID,918.346,VALID,0,VALID,92.7389,VALID,0,VALID,19.7793,VALID,340,VALID,0.335156,
2009-08-30, 02:24:05,VALID,918.341,VALID,0,VALID,92.5635,VALID,0,VALID,19.8183,VALID,340,VALID,0.0191406,
2009-08-30, 02:25:05,VALID,918.361,VALID,0,VALID,92.6397,VALID,0,VALID,19.8573,VALID,340,VALID,0.0144531,
2009-08-30, 02:26:05,VALID,918.384,VALID,0,VALID,92.5711,VALID,0,VALID,19.8963,VALID,340,VALID,0.08125,
2009-08-30, 02:27:05,VALID,918.404,VALID,0,VALID,92.3958,VALID,0,VALID,19.9158,VALID,340,VALID,0.0363281,
2009-08-30, 02:28:05,VALID,918.397,VALID,0,VALID,92.2433,VALID,0,VALID,19.9548,VALID,340,VALID,0,
2009-08-30, 02:29:05,VALID,918.413,VALID,0,VALID,92.068,VALID,0,VALID,19.9938,VALID,340,VALID,0,
2009-08-30, 02:30:05,VALID,918.392,VALID,0,VALID,91.8393,VALID,0,VALID,20.0133,VALID,340,VALID,0,
2009-08-30, 02:31:05,VALID,918.39,VALID,0,VALID,91.946,VALID,0,VALID,20.0523,VALID,340,VALID,0,
2009-08-30, 02:32:05,VALID,918.361,VALID,0,VALID,91.603,VALID,0,VALID,20.0523,VALID,340,VALID,0,
2009-08-30, 02:33:05,VALID,918.393,VALID,0,VALID,91.4962,VALID,0,VALID,20.0718,VALID,340,VALID,0,
2009-08-30, 02:34:05,VALID,918.384,VALID,0,VALID,91.4734,VALID,0,VALID,20.0913,VALID,340,VALID,0,
2009-08-30, 02:35:05,VALID,918.34,VALID,0,VALID,90.772,VALID,0,VALID,20.0703,VALID,340,VALID,0,
2009-08-30, 02:36:05,VALID,918.31,VALID,0,VALID,90.9702,VALID,0,VALID,20.1123,VALID,340,VALID,0.0703125,
2009-08-30, 02:37:05,VALID,918.274,VALID,0,VALID,91.1074,VALID,0,VALID,20.0328,VALID,340,VALID,0.352734,
2009-08-30, 02:38:05,VALID,918.266,VALID,0,VALID,91.3514,VALID,0.107441,VALID,19.9728,VALID,340,VALID,0.641797,
2009-08-30, 02:39:05,VALID,918.257,VALID,0,VALID,91.6106,VALID,0,VALID,19.9338,VALID,340,VALID,0.613281,
2009-08-30, 02:40:05,VALID,918.246,VALID,0,VALID,91.6335,VALID,0,VALID,19.8753,VALID,340,VALID,0.341797,
2009-08-30, 02:41:05,VALID,918.297,VALID,0,VALID,91.9994,VALID,0.107441,VALID,19.8753,VALID,340,VALID,0,
2009-08-30, 02:42:05,VALID,918.275,VALID,0,VALID,91.7249,VALID,0.107441,VALID,19.8558,VALID,340,VALID,0,
2009-08-30, 02:43:05,VALID,918.264,VALID,0,VALID,91.9003,VALID,0.107441,VALID,19.8363,VALID,340,VALID,0,
2009-08-30, 02:44:05,VALID,918.267,VALID,0,VALID,91.8774,VALID,0,VALID,19.8378,VALID,340,VALID,0.267188,
2009-08-30, 02:45:05,VALID,918.287,VALID,0,VALID,91.7935,VALID,0.107441,VALID,19.7778,VALID,340,VALID,0.227734,
2009-08-30, 02:46:05,VALID,918.23,VALID,0,VALID,92.3501,VALID,0,VALID,19.7778,VALID,340,VALID,0.446094,
2009-08-30, 02:47:05,VALID,918.253,VALID,0,VALID,92.6397,VALID,0,VALID,19.7598,VALID,340,VALID,0.458203,
2009-08-30, 02:48:05,VALID,918.229,VALID,0,VALID,92.7693,VALID,0.107441,VALID,19.7208,VALID,340,VALID,0.401563,
2009-08-30, 02:49:05,VALID,918.237,VALID,0,VALID,92.9599,VALID,0,VALID,19.7403,VALID,340,VALID,0.266797,
2009-08-30, 02:50:05,VALID,918.226,VALID,0,VALID,93.0514,VALID,0,VALID,19.7403,VALID,340,VALID,0.366406,
2009-08-30, 02:51:05,VALID,918.188,VALID,0,VALID,92.9523,VALID,0,VALID,19.7208,VALID,340,VALID,0.596875,
2009-08-30, 02:52:05,VALID,918.176,VALID,0,VALID,93.3945,VALID,0,VALID,19.7388,VALID,340,VALID,0.714453,
2009-08-30, 02:53:05,VALID,918.168,VALID,0,VALID,93.2268,VALID,0.107441,VALID,19.7988,VALID,340,VALID,0.675391,
2009-08-30, 02:54:05,VALID,918.135,VALID,0,VALID,92.9447,VALID,0,VALID,19.7778,VALID,340,VALID,0.609766,
2009-08-30, 02:55:05,VALID,918.142,VALID,0,VALID,92.6169,VALID,0,VALID,19.7793,VALID,340,VALID,0.581641,
2009-08-30, 02:56:05,VALID,918.174,VALID,0,VALID,92.7693,VALID,0,VALID,19.7388,VALID,340,VALID,0.660547,
2009-08-30, 02:57:05,VALID,918.138,VALID,0,VALID,92.9447,VALID,0.107441,VALID,19.7193,VALID,340,VALID,0.623438,
2009-08-30, 02:58:05,VALID,918.148,VALID,0,VALID,93.0362,VALID,0.107441,VALID,19.7193,VALID,340,VALID,0.607422,
2009-08-30, 02:59:05,VALID,918.107,VALID,0,VALID,92.8989,VALID,0,VALID,19.7403,VALID,340,VALID,0.569531,
2009-08-30, 03:00:05,VALID,918.1,VALID,0,VALID,92.8075,VALID,0.107441,VALID,19.7403,VALID,340,VALID,0.678516,
2009-08-30, 03:01:05,VALID,918.074,VALID,0,VALID,92.7236,VALID,0,VALID,19.7598,VALID,340,VALID,0.682422,
2009-08-30, 03:02:05,VALID,918.046,VALID,0,VALID,92.6779,VALID,0,VALID,19.7598,VALID,340,VALID,0.614453,
2009-08-30, 03:03:05,VALID,918.042,VALID,0,VALID,92.3882,VALID,0.107441,VALID,19.7388,VALID,340,VALID,0.45625,
2009-08-30, 03:04:05,VALID,918.032,VALID,0,VALID,92.5406,VALID,0.107441,VALID,19.7598,VALID,340,VALID,0.545313,
2009-08-30, 03:05:05,VALID,917.981,VALID,0,VALID,92.4034,VALID,0.107441,VALID,19.7388,VALID,340,VALID,0.492188,
2009-08-30, 03:06:05,VALID,917.99,VALID,0,VALID,92.5102,VALID,0.107441,VALID,19.6998,VALID,340,VALID,0.644922,
2009-08-30, 03:07:05,VALID,917.965,VALID,0,VALID,91.9079,VALID,0,VALID,19.6803,VALID,340,VALID,0.587109,
2009-08-30, 03:08:05,VALID,917.955,VALID,0,VALID,92.6397,VALID,0,VALID,19.6833,VALID,340,VALID,0.532422,
2009-08-30, 03:09:05,VALID,917.966,VALID,0,VALID,92.8608,VALID,0,VALID,19.6233,VALID,340,VALID,0.458984,
2009-08-30, 03:10:05,VALID,917.96,VALID,0,VALID,92.5864,VALID,0,VALID,19.5843,VALID,340,VALID,0.319531,
2009-08-30, 03:11:05,VALID,917.924,VALID,0,VALID,92.9371,VALID,0,VALID,19.5843,VALID,340,VALID,0.319922,
2009-08-30, 03:12:05,VALID,917.975,VALID,0,VALID,92.9752,VALID,0,VALID,19.5858,VALID,340,VALID,0.382813,
2009-08-30, 03:13:05,VALID,917.945,VALID,0,VALID,92.8913,VALID,0,VALID,19.5453,VALID,340,VALID,0.558984,
2009-08-30, 03:14:05,VALID,917.964,VALID,0,VALID,93.2115,VALID,0,VALID,19.5858,VALID,340,VALID,0.450781,
2009-08-30, 03:15:05,VALID,917.92,VALID,0,VALID,93.0514,VALID,0,VALID,19.5663,VALID,340,VALID,0.333594,
2009-08-30, 03:16:05,VALID,917.934,VALID,0,VALID,93.0362,VALID,0,VALID,19.5843,VALID,340,VALID,0.342578,
2009-08-30, 03:17:05,VALID,917.931,VALID,0,VALID,92.7922,VALID,0,VALID,19.6038,VALID,340,VALID,0.423828,
2009-08-30, 03:18:05,VALID,917.903,VALID,0,VALID,92.533,VALID,0,VALID,19.6233,VALID,340,VALID,0.406641,
2009-08-30, 03:19:05,VALID,917.879,VALID,0,VALID,92.3806,VALID,0,VALID,19.6833,VALID,340,VALID,0.205859,
2009-08-30, 03:20:05,VALID,917.9,VALID,0,VALID,92.2281,VALID,0,VALID,19.7028,VALID,340,VALID,0.163281,
2009-08-30, 03:21:05,VALID,917.887,VALID,0,VALID,92.007,VALID,0,VALID,19.7028,VALID,340,VALID,0.254687,
2009-08-30, 03:22:05,VALID,917.873,VALID,0,VALID,91.9918,VALID,0,VALID,19.6833,VALID,340,VALID,0.422266,
2009-08-30, 03:23:05,VALID,917.832,VALID,0,VALID,91.9841,VALID,0,VALID,19.6428,VALID,340,VALID,0.36875,
2009-08-30, 03:24:05,VALID,917.818,VALID,0,VALID,92.1747,VALID,0,VALID,19.6218,VALID,340,VALID,0.387891,
2009-08-30, 03:25:05,VALID,917.819,VALID,0,VALID,92.1214,VALID,0.107441,VALID,19.6233,VALID,340,VALID,0.302734,
2009-08-30, 03:26:05,VALID,917.808,VALID,0,VALID,92.3119,VALID,0,VALID,19.6233,VALID,340,VALID,0.485938,
2009-08-30, 03:27:05,VALID,917.783,VALID,0,VALID,92.3196,VALID,0,VALID,19.5828,VALID,340,VALID,0.735156,
2009-08-30, 03:28:05,VALID,917.794,VALID,0,VALID,92.4949,VALID,0.107441,VALID,19.5648,VALID,340,VALID,0.505469,
2009-08-30, 03:29:05,VALID,917.785,VALID,0,VALID,92.7693,VALID,0.107441,VALID,19.5438,VALID,340,VALID,0.405469,
2009-08-30, 03:30:05,VALID,917.801,VALID,0,VALID,92.6931,VALID,0,VALID,19.5438,VALID,340,VALID,0.244531,
2009-08-30, 03:31:05,VALID,917.772,VALID,0,VALID,92.7312,VALID,0.107441,VALID,19.5633,VALID,340,VALID,0.428906,
2009-08-30, 03:32:05,VALID,917.741,VALID,0,VALID,92.8303,VALID,0,VALID,19.5843,VALID,340,VALID,0,
2009-08-30, 03:33:05,VALID,917.705,VALID,0,VALID,92.2052,VALID,0.107441,VALID,19.6038,VALID,340,VALID,0,
2009-08-30, 03:34:05,VALID,917.709,VALID,0,VALID,92.2738,VALID,0.107441,VALID,19.5843,VALID,340,VALID,0,
2009-08-30, 03:35:05,VALID,917.715,VALID,0,VALID,92.5864,VALID,0.107441,VALID,19.5243,VALID,340,VALID,0,
2009-08-30, 03:36:05,VALID,917.703,VALID,0,VALID,92.7922,VALID,0.107441,VALID,19.4853,VALID,340,VALID,0,
2009-08-30, 03:37:05,VALID,917.681,VALID,0,VALID,92.9828,VALID,0,VALID,19.4868,VALID,340,VALID,0.233984,
2009-08-30, 03:38:05,VALID,917.687,VALID,0,VALID,93.0667,VALID,0,VALID,19.4868,VALID,340,VALID,0.194531,
2009-08-30, 03:39:05,VALID,917.666,VALID,0,VALID,92.8227,VALID,0,VALID,19.5258,VALID,340,VALID,0,
2009-08-30, 03:40:05,VALID,917.679,VALID,0,VALID,92.6093,VALID,0.107441,VALID,19.6038,VALID,340,VALID,0.0574219,